No particular awareness of the weather is required.    There are no Weather-warnings


Meteo18 Weather Cam more information Meteo18 Weather Cam


Thunder radar more information blitzortung!


Rain radar more information rain snow radar


Visit our other weather sites:

Template documentation
and downloads

And another site



Weather Underground History page Text

Daily Summary for October 16, 2017 Units:  English    Metric   Both
« Previous Day
Next Day »
Daily Weekly Monthly Yearly Custom
  High: Low: Average:
Temperature: TemperatureC °F 14.7 °F 17.8 °F
Dew Point: DewpointC °F 13.2 °F 14.2 °F
Humidity: Humidity % 55 % 78 %
Wind Speed: WindSpeedKMH mph -1608.8 mph -25.9 mph
Wind Gust: WindSpeedGustKMH mph - -
Wind:- -
Pressure: PressurehPa in 1022.2 in -
Precipitation: 0.0 in    
Historical Graphs
 
 
Tabular Data for October 16, 2017
Time Temperature Dew Point Pressure Wind Wind Speed Wind Gust Humidity Rainfall Rate (Hourly)
TemperatureC °F DewpointC °F PressurehPa in Calm     Humidity % HourlyPrecipMM in
18:12 24.5 °F 14.9 °F 1022.2 in North -1608.8 mph -1607.4 mph 55 % 0 in
18:32 23.9 °F 14.9 °F 1022.2 in Calm   -1607.4 mph 57 % 0 in
18:37 23.5 °F 15.0 °F 1022.6 in Calm   3.2 mph 59 % 0.0 in
18:42 23.1 °F 15.2 °F 1022.6 in Calm   3.2 mph 61 % 0.0 in
18:47 22.8 °F 15.1 °F 1022.6 in Calm   3.2 mph 62 % 0.0 in
18:52 22.4 °F 15.0 °F 1022.6 in South 1.6 mph 1.6 mph 63 % 0.0 in
18:57 22.2 °F 15.1 °F 1022.9 in Calm   1.6 mph 64 % 0.0 in
19:02 21.8 °F 15.2 °F 1022.9 in Calm   1.6 mph 66 % 0.0 in
19:07 21.7 °F 15.3 °F 1022.9 in Calm   1.6 mph 67 % 0.0 in
19:17 21.4 °F 15.2 °F 1022.9 in Calm   1.6 mph 68 % 0.0 in
19:22 21.2 °F 15.1 °F 1022.9 in Calm   1.6 mph 68 % 0.0 in
19:32 21.0 °F 15.1 °F 1022.9 in Calm   1.6 mph 69 % 0.0 in
19:37 20.9 °F 15.0 °F 1023.2 in Calm   1.6 mph 69 % 0.0 in
19:42 20.6 °F 14.9 °F 1023.2 in Calm   1.6 mph 70 % 0.0 in
19:47 20.1 °F 14.9 °F 1023.2 in Calm   1.6 mph 72 % 0.0 in
19:52 19.7 °F 14.7 °F 1023.2 in Calm     73 % 0.0 in
19:57 19.5 °F 14.9 °F 1023.2 in Calm   3.2 mph 75 % 0.0 in
20:02 19.7 °F 14.9 °F 1023.2 in Calm   3.2 mph 74 % 0.0 in
20:07 19.7 °F 14.9 °F 1023.2 in Calm   3.2 mph 74 % 0.0 in
20:12 19.6 °F 15.0 °F 1023.2 in Calm   1.6 mph 75 % 0.0 in
20:17 19.2 °F 14.9 °F 1023.2 in Calm   1.6 mph 76 % 0.0 in
20:22 18.9 °F 14.8 °F 1023.2 in Calm   1.6 mph 77 % 0.0 in
20:27 18.8 °F 14.9 °F 1023.2 in Calm   1.6 mph 78 % 0.0 in
20:32 18.6 °F 14.9 °F 1023.2 in Calm     79 % 0.0 in
20:42 18.3 °F 14.8 °F 1023.6 in Calm     80 % 0.0 in
20:47 18.1 °F 14.8 °F 1023.6 in Calm     81 % 0.0 in
20:52 17.8 °F 14.5 °F 1023.6 in Calm     81 % 0.0 in
20:57 17.6 °F 14.5 °F 1023.6 in Calm     82 % 0.0 in
21:02 17.5 °F 14.6 °F 1023.6 in Calm     83 % 0.0 in
21:12 17.5 °F 14.4 °F 1023.6 in Calm     82 % 0.0 in
21:17 17.4 °F 14.5 °F 1023.6 in Calm     83 % 0.0 in
21:22 17.2 °F 14.5 °F 1023.6 in Calm     84 % 0.0 in
21:27 17.1 °F 14.4 °F 1023.6 in Calm     84 % 0.0 in
21:32 17.0 °F 14.5 °F 1023.6 in Calm     85 % 0.0 in
21:37 17.1 °F 14.6 °F 1023.6 in Calm     85 % 0.0 in
21:42 17.0 °F 14.5 °F 1023.9 in Calm     85 % 0.0 in
21:47 16.9 °F 14.4 °F 1023.6 in Calm     85 % 0.0 in
21:52 16.8 °F 14.3 °F 1023.9 in Calm     85 % 0.0 in
21:57 16.8 °F 14.4 °F 1023.9 in Calm     86 % 0.0 in
22:02 16.7 °F 14.3 °F 1023.9 in Calm     86 % 0.0 in
22:12 16.6 °F 14.2 °F 1023.9 in Calm     86 % 0.0 in
22:17 16.3 °F 14.1 °F 1023.9 in Calm     87 % 0.0 in
22:22 16.1 °F 13.9 °F 1023.9 in Calm     87 % 0.0 in
22:32 16.1 °F 14.1 °F 1023.9 in Calm     88 % 0.0 in
22:37 15.9 °F 13.9 °F 1024.3 in Calm     88 % 0.0 in
22:42 15.8 °F 13.8 °F 1024.3 in Calm     88 % 0.0 in
22:47 15.7 °F 13.9 °F 1024.3 in Calm     89 % 0.0 in
22:52 15.6 °F 13.8 °F 1024.3 in Calm     89 % 0.0 in
22:57 15.5 °F 13.7 °F 1024.3 in Calm     89 % 0.0 in
23:02 15.3 °F 13.7 °F 1024.3 in Calm     90 % 0.0 in
23:07 15.3 °F 13.7 °F 1024.3 in Calm     90 % 0.0 in
23:12 15.3 °F 13.7 °F 1024.3 in Calm     90 % 0.0 in
23:17 15.3 °F 13.7 °F 1024.3 in Calm     90 % 0.0 in
23:22 15.2 °F 13.4 °F 1024.3 in Calm     89 % 0.0 in
23:27 15.2 °F 13.6 °F 1024.3 in Calm     90 % 0.0 in
23:32 15.2 °F 13.7 °F 1024.3 in Calm     91 % 0.0 in
23:37 15.1 °F 13.5 °F 1024.3 in Calm     90 % 0.0 in
23:42 14.9 °F 13.3 °F 1024.3 in Calm     90 % 0.0 in
23:47 14.9 °F 13.4 °F 1024.6 in Calm     91 % 0.0 in
23:52 14.7 °F 13.2 °F 1024.3 in Calm     91 % 0.0 in
23:57 14.8 °F 13.3 °F 1024.3 in Calm     91 % 0.0 in
Meteo18
Compliments of Weather Underground - 4 mb

Script developed by  Jim McMurry - jmcmurry@mwt.net Adapted for the template by  Wim van der Kuil - Leuven-Template.eu

You find our weather info also at:

European Weather Network

Weather Underground

Equipment we use:

Weather-station
Davis Vue

Weather-program
Meteobridge

Weather-server
Raspberry PI 2 B+

Provider
1 and 1

Davis Vue

Meteobridge

Raspberry PI 2 B+

1 and 1